DateTimeUTC,F1_A11,F1_S11,BsB_S11,BsG_S11,BsR_S11,BbsB_S11,BbsG_S11,BbsR_S11,BaB_A11,BaG_A11,BaR_A11,Tu_S11,T_S11,Uu_S11,U_S11,P_S11,T1_A11
2021-08-15T15:00:00Z,00000200,20000000,,,,,,,-000.01,0000.23,0000.28,19.8,26.1,13.8,09.4,0674.1,31.0
2021-08-15T15:01:00Z,00000200,20000000,,,,,,,0000.24,-000.31,-000.17,19.8,26.1,13.8,09.4,0674.1,31.0
2021-08-15T15:02:00Z,00000200,20000000,,,,,,,-000.31,0000.11,-000.30,19.8,26.1,13.8,09.4,0674.1,31.0
2021-08-15T15:03:00Z,00000200,60000000,,,,,,,0000.32,0000.41,0000.72,19.8,26.1,13.8,09.4,0674.1,31.0
2021-08-15T15:04:00Z,00000200,40000000,0001.52,0001.39,0001.00,0000.57,0000.11,0000.32,0000.38,0000.15,0000.11,19.9,26.0,13.9,09.6,0675.0,31.0
2021-08-15T15:05:00Z,00000200,00000000,0001.71,0001.36,0001.18,0000.18,-000.03,0000.16,0000.21,0000.33,0000.21,20.0,25.9,13.8,09.6,0675.1,31.0
2021-08-15T15:06:00Z,00000200,00000000,0002.25,0001.33,0001.06,0000.65,0000.41,0000.52,0000.43,0000.28,0000.14,20.0,25.9,13.8,09.6,0675.1,31.0
2021-08-15T15:07:00Z,00000200,00000000,0002.03,0001.36,0000.66,0000.37,0000.18,0000.15,0000.33,0000.32,0000.52,20.0,25.9,13.8,09.7,0675.1,31.0
2021-08-15T15:08:00Z,00000200,00000000,0001.36,0001.04,0001.02,0000.44,0000.15,0000.25,0000.21,0000.36,0000.18,20.0,25.9,13.8,09.7,0675.1,31.0
2021-08-15T15:09:00Z,00000200,00000000,0001.63,0001.51,0000.81,0000.26,0000.20,-000.08,0000.46,0000.52,0000.08,20.0,25.9,14.0,09.8,0675.1,31.0
2021-08-15T15:10:00Z,00000200,00000000,0002.36,0001.34,0001.03,0000.15,0000.14,0000.24,0000.33,0000.11,0000.60,20.0,25.9,13.9,09.7,0675.1,31.0
2021-08-15T15:11:00Z,00000200,00000000,0001.45,0001.24,0001.07,-000.37,-000.13,0000.39,0000.81,0000.63,0000.41,20.0,25.9,13.9,09.8,0675.1,31.0
2021-08-15T15:12:00Z,00000200,00000000,0001.77,0001.44,0000.97,0000.50,0000.31,0000.40,0000.09,0000.28,0000.20,20.0,25.9,13.9,09.8,0675.1,31.0
2021-08-15T15:13:00Z,00000200,00000000,0001.99,0001.20,0001.12,0000.23,0000.25,0000.17,0000.30,0000.32,0000.23,20.0,25.9,13.9,09.8,0675.1,31.0
2021-08-15T15:14:00Z,00000200,00000000,0001.87,0000.98,0001.16,0000.80,0000.46,0000.29,0000.91,0000.87,0000.59,20.0,25.9,14.0,09.8,0675.1,31.0
2021-08-15T15:15:00Z,00000200,00000000,0001.75,0001.27,0000.47,0000.46,0000.18,-000.13,0000.15,-000.43,0000.03,20.0,25.9,14.0,09.8,0675.1,31.0
2021-08-15T15:16:00Z,00000200,00000000,0001.37,0001.11,0000.74,0000.53,0000.16,0000.31,0000.09,0000.55,0000.06,20.0,25.9,13.8,09.7,0675.1,31.0
2021-08-15T15:17:00Z,00000200,00000000,0001.87,0001.44,0001.04,0000.98,0000.12,0000.27,0000.26,0000.37,0000.19,20.0,25.9,13.9,09.7,0675.1,31.0
2021-08-15T15:18:00Z,00000200,00000000,0001.95,0001.35,0000.89,0000.42,0000.27,0000.40,0000.28,-000.04,0000.44,20.0,25.9,13.8,09.7,0675.0,31.0
2021-08-15T15:19:00Z,00000200,00000000,0001.85,0001.14,0001.01,0000.38,0000.38,0000.29,0000.53,0000.28,0000.10,20.0,25.9,13.7,09.7,0675.1,31.0
2021-08-15T15:20:00Z,00000200,00000000,0001.35,0001.14,0000.92,0000.55,0000.28,0000.23,0000.22,0000.44,0000.47,20.0,25.9,13.9,09.8,0675.0,31.0
2021-08-15T15:21:00Z,00000200,00000000,0001.76,0001.30,0000.76,0000.63,0000.15,0000.04,0000.14,0000.73,0000.34,20.0,25.9,14.0,09.8,0675.0,31.0
2021-08-15T15:22:00Z,00000200,00000000,0002.31,0001.48,0001.02,0000.10,-000.06,0000.04,0000.55,-000.08,0000.12,20.0,25.9,13.9,09.7,0675.0,31.0
2021-08-15T15:23:00Z,00000200,00000000,0001.88,0001.18,0000.67,0000.48,0000.32,0000.03,0000.48,0000.64,0000.52,20.1,25.9,13.7,09.6,0675.0,31.0
2021-08-15T15:24:00Z,00000200,00000000,0001.23,0001.14,0000.57,-000.16,0000.58,-000.07,0000.19,-000.14,-000.06,20.1,25.9,14.0,09.8,0675.0,31.0
2021-08-15T15:25:00Z,00000200,00000000,0003.07,0001.25,0000.76,0000.63,0000.22,0000.06,0000.07,0000.67,0000.22,20.1,25.9,13.8,09.7,0675.1,31.0
2021-08-15T15:26:00Z,00000200,00000000,0001.47,0001.27,0000.83,0000.78,0000.00,0000.22,0000.14,-000.01,0000.12,20.1,25.9,13.7,09.6,0675.1,31.0
2021-08-15T15:27:00Z,00000200,00000000,0002.38,0001.13,0000.79,0000.65,0000.17,0000.07,0000.74,0000.55,0000.43,20.1,25.9,13.8,09.7,0675.0,31.0
2021-08-15T15:28:00Z,00000200,00000000,0002.59,0001.08,0000.72,0000.94,0000.13,0000.13,0000.41,0000.37,0000.26,20.1,25.9,13.8,09.7,0675.0,31.0
2021-08-15T15:29:00Z,00000200,00000000,0001.59,0001.38,0000.99,0000.62,0000.12,0000.16,0000.24,0000.05,0000.42,20.1,25.9,13.8,09.7,0675.1,31.0
2021-08-15T15:30:00Z,00000200,00000000,0001.53,0001.24,0000.62,0000.52,0000.21,0000.35,0000.44,0000.62,0000.23,20.1,25.9,13.9,09.7,0675.0,31.0
2021-08-15T15:31:00Z,00000200,00000000,0001.79,0001.07,0000.87,0000.12,0000.27,-000.01,0000.33,0000.59,0000.66,20.1,25.9,13.9,09.7,0675.1,31.0
2021-08-15T15:32:00Z,00000200,00000000,0002.21,0001.25,0000.56,0000.56,0000.35,0000.06,0000.23,-000.24,-000.13,20.1,25.9,13.9,09.7,0675.1,31.0
2021-08-15T15:33:00Z,00000200,00000000,0001.95,0001.62,0000.92,0000.58,0000.25,-000.09,0000.41,0000.26,0000.37,20.1,25.9,13.7,09.6,0675.0,31.0
2021-08-15T15:34:00Z,00000200,00000000,0002.20,0001.10,0000.78,0000.87,0000.19,0000.57,0000.24,0000.16,0000.11,20.1,25.9,13.6,09.5,0675.0,31.0
2021-08-15T15:35:00Z,00000200,00000000,0002.00,0001.40,0001.02,0000.88,0000.17,-000.03,0000.32,0000.37,0000.11,20.1,25.9,13.6,09.5,0675.0,31.0
2021-08-15T15:36:00Z,00000200,00000000,0002.54,0001.42,0001.08,0000.17,0000.41,0000.29,0000.28,0000.34,0000.12,20.1,25.9,13.6,09.6,0675.0,31.0
2021-08-15T15:37:00Z,00000200,00000000,0001.42,0001.17,0000.85,0000.53,0000.67,0000.19,0000.61,0000.39,0000.32,20.1,25.9,13.6,09.5,0675.1,31.0
2021-08-15T15:38:00Z,00000200,00000000,0002.00,0001.50,0000.63,0000.33,-000.04,0000.04,0000.02,0000.11,0000.08,20.1,25.9,13.5,09.4,0675.0,31.0
2021-08-15T15:39:00Z,00000200,00000000,0001.76,0001.41,0001.04,0000.62,0000.14,0000.38,0000.46,0000.70,0000.64,20.1,25.9,13.5,09.5,0675.0,31.0
2021-08-15T15:40:00Z,00000200,00000000,0001.56,0001.56,0000.71,0000.51,0000.01,0000.07,0000.46,0000.06,0000.00,20.1,25.9,13.6,09.5,0675.0,31.0
2021-08-15T15:41:00Z,00000200,00000000,0002.16,0001.42,0000.98,0000.76,0000.08,0000.36,-000.02,0000.30,0000.38,20.1,25.9,13.4,09.4,0675.1,31.0
2021-08-15T15:42:00Z,00000200,00000000,0002.17,0001.16,0001.06,0000.63,-000.02,0000.06,0000.55,0000.41,0000.20,20.1,25.9,13.6,09.5,0675.0,31.0
2021-08-15T15:43:00Z,00000200,00000000,0002.65,0001.35,0001.13,0000.51,0000.08,0000.14,0000.23,0000.02,0000.26,20.1,26.0,13.6,09.5,0675.0,31.0
2021-08-15T15:44:00Z,00000200,00000000,0001.91,0001.34,0000.88,-000.08,0000.09,0000.09,0000.58,0000.70,0000.42,20.1,26.0,13.6,09.5,0675.0,31.0
2021-08-15T15:45:00Z,00000200,00000000,0001.24,0001.14,0000.99,0000.08,-000.05,0000.38,0000.21,0000.21,0000.35,20.1,25.9,13.7,09.6,0675.0,31.0
2021-08-15T15:46:00Z,00000200,00000000,0001.55,0001.30,0001.00,0000.94,0000.14,0000.16,0000.69,0000.82,0000.52,20.1,25.9,13.7,09.6,0675.0,31.0
2021-08-15T15:47:00Z,00000200,00000000,0001.93,0002.32,0001.86,0000.22,0000.41,0000.52,0000.31,0000.00,0000.22,20.1,25.9,13.6,09.5,0675.0,31.0
2021-08-15T15:48:00Z,00000200,00000000,0003.92,0002.72,0001.84,0000.66,0000.29,0000.11,0000.75,0000.59,0000.25,20.1,26.0,13.4,09.4,0674.9,31.0
2021-08-15T15:49:00Z,00000200,00000000,0002.94,0002.72,0001.89,0000.79,0000.28,0000.48,0000.57,0001.21,0000.60,20.1,25.9,13.4,09.4,0674.9,31.0
2021-08-15T15:50:00Z,00000200,00000000,0004.10,0002.58,0001.87,0000.43,0000.62,0000.20,0000.96,0000.61,0000.70,20.1,25.9,13.5,09.5,0674.9,31.0
2021-08-15T15:51:00Z,00000200,00000000,0003.37,0002.66,0001.96,0000.98,0000.23,0000.21,0000.47,0000.28,0000.53,20.1,25.9,13.6,09.5,0674.9,31.0
2021-08-15T15:52:00Z,00000200,00000000,0003.01,0002.45,0001.85,0000.52,0000.51,0000.10,0001.09,0000.75,0000.49,20.1,25.9,13.5,09.5,0674.9,31.0
2021-08-15T15:53:00Z,00000200,00000000,0003.33,0002.28,0001.78,0000.41,0000.53,0000.27,0001.03,0001.04,0001.11,20.1,25.9,13.6,09.6,0675.0,31.0
2021-08-15T15:54:00Z,00000200,00000000,0003.03,0002.29,0001.98,0000.26,0000.23,0000.30,0000.58,0000.66,0000.52,20.1,25.9,13.7,09.6,0675.0,31.0
2021-08-15T15:55:00Z,00000200,00000000,0002.59,0001.85,0001.67,0000.62,0000.31,0000.42,0000.65,0000.72,0000.36,20.0,25.9,13.6,09.6,0675.0,31.0
2021-08-15T15:56:00Z,00000200,00000000,0003.02,0002.36,0002.05,0000.56,0000.19,0000.15,0000.65,0000.58,0000.39,20.1,25.9,13.7,09.6,0675.0,31.0
2021-08-15T15:57:00Z,00000200,40000000,,,,,,,0000.17,0000.26,0000.17,20.1,26.0,14.0,09.8,0675.0,31.0
2021-08-15T15:58:00Z,00000200,60000000,,,,,,,-000.04,-000.05,0000.08,19.8,26.0,13.9,09.5,0673.9,31.0
2021-08-15T15:59:00Z,00000200,20000000,,,,,,,-000.07,0000.05,0000.00,19.8,26.1,13.8,09.4,0673.9,31.0
